GW0415 Weather Reports


time (UTC)temp
C
wind
direction
speed
KPH
gust
KPH
rain 1hr
cm
rain 24hr
cm
rain mn
cm
humidity
%
barometer
mb
20230128012337 -10 14 3.2 4.8 0.00 0.00 0.00 75 1012.6
20230128011837 -10 95 3.2 4.8 0.00 0.00 0.00 75 1012.5
20230128011336 -10 140 1.6 4.8 0.00 0.00 0.00 75 1012.3
20230128010834 -10 135 4.8 8.0 0.00 0.00 0.00 75 1012.0
20230128010333 -10 129 3.2 4.8 0.00 0.00 0.00 75 1012.2
20230128005832 -10 83 0.0 8.0 0.00 0.00 0.00 74 1012.0
20230128005332 -10 79 3.2 6.4 0.00 0.00 0.00 74 1011.9
20230128004832 -10 82 3.2 3.2 0.00 0.00 0.00 75 1011.7
20230128004330 -10 40 0.0 9.7 0.00 0.00 0.00 74 1011.5
20230128003828 -10 78 8.0 8.0 0.00 0.00 0.00 74 1011.6
20230128003327 -10 114 0.0 6.4 0.00 0.00 0.00 74 1011.4
20230128002826 -10 180 3.2 8.0 0.00 0.00 0.00 74 1011.2
20230128002325 -10 218 3.2 6.4 0.00 0.00 0.00 75 1011.2
20230128001825 -9 83 4.8 8.0 0.00 0.00 0.00 75 1011.3
20230128001323 -9 9 3.2 6.4 0.00 0.00 0.00 75 1011.1
20230128000822 -9 108 4.8 11.3 0.00 0.00 0.00 75 1011.0
20230128000324 -9 63 1.6 6.4 0.00 0.00 0.00 75 1010.7
20230127235820 -9 54 4.8 4.8 0.00 0.00 0.00 74 1010.7
20230127235318 -9 114 4.8 9.7 0.00 0.00 0.00 74 1010.4
20230127234817 -9 180 1.6 8.0 0.00 0.00 0.00 74 1010.4
20230127234315 -8 131 4.8 6.4 0.00 0.00 0.00 74 1010.2
20230127233815 -8 75 4.8 11.3 0.00 0.00 0.00 73 1009.9
20230127233315 -8 104 0.0 6.4 0.00 0.00 0.00 73 1009.7
20230127232814 -8 112 3.2 3.2 0.00 0.00 0.00 72 1009.4
20230127232313 -8 85 4.8 6.4 0.00 0.00 0.00 72 1009.3
20230127231812 -8 90 0.0 4.8 0.00 0.00 0.00 71 1009.0
20230127231310 -8 154 4.8 6.4 0.00 0.00 0.00 71 1009.2
20230127230808 -8 101 0.0 8.0 0.00 0.00 0.00 70 1008.8
20230127230309 -8 90 0.0 4.8 0.00 0.00 0.00 71 1008.7
20230127225808 -7 77 1.6 4.8 0.00 0.00 0.00 70 1008.8
20230127225308 -7 86 3.2 9.7 0.00 0.00 0.00 70 1008.8
20230127224807 -7 121 4.8 8.0 0.00 0.00 0.00 68 1008.4
20230127224304 -7 79 8.0 11.3 0.00 0.00 0.00 68 1008.2
20230127223803 -7 2 4.8 4.8 0.00 0.00 0.00 67 1008.1
20230127223303 -7 106 3.2 12.9 0.00 0.00 0.00 67 1008.2
20230127222801 -7 102 6.4 8.0 0.00 0.00 0.00 67 1007.7
20230127222305 -6 122 3.2 12.9 0.00 0.00 0.00 67 1007.7
20230127221800 -6 147 11.3 11.3 0.00 0.00 0.00 68 1007.5
20230127221259 -6 60 1.6 8.0 0.00 0.00 0.00 67 1007.6
20230127220759 -6 66 4.8 8.0 0.00 0.00 0.00 67 1007.4
20230127220257 -6 289 3.2 8.0 0.00 0.00 0.00 67 1007.3
20230127215756 -6 86 0.0 8.0 0.00 0.00 0.00 66 1007.3
20230127215254 -6 65 3.2 4.8 0.00 0.00 0.00 66 1007.0
20230127214753 -6 134 8.0 8.0 0.00 0.00 0.00 65 1006.9
20230127214252 -6 90 3.2 11.3 0.00 0.00 0.00 65 1006.8
20230127213752 -6 90 3.2 9.7 0.00 0.00 0.00 65 1006.8
20230127213251 -6 22 4.8 16.1 0.00 0.00 0.00 66 1006.6
20230127212750 -6 83 1.6 9.7 0.00 0.00 0.00 66 1006.6
20230127212248 -6 270 3.2 9.7 0.00 0.00 0.00 66 1006.3
20230127211747 -6 90 0.0 20.9 0.00 0.00 0.00 66 1006.3
20230127211247 -6 101 0.0 11.3 0.00 0.00 0.00 66 1006.3
20230127210746 -6 114 0.0 9.7 0.00 0.00 0.00 67 1006.1
20230127210246 -6 90 4.8 9.7 0.00 0.00 0.00 66 1005.9
20230127205746 -5 201 4.8 8.0 0.00 0.00 0.00 66 1005.9
20230127205245 -6 26 4.8 9.7 0.00 0.00 0.00 66 1005.9
20230127204745 -5 118 4.8 9.7 0.00 0.00 0.00 67 1005.7
20230127204244 -5 345 3.2 12.9 0.00 0.00 0.00 68 1005.7
20230127203744 -5 138 4.8 12.9 0.00 0.00 0.00 67 1005.6
20230127203242 -5 81 3.2 11.3 0.00 0.00 0.00 67 1005.5
20230127202742 -5 144 3.2 8.0 0.00 0.00 0.00 67 1005.5
20230127202241 -5 123 0.0 12.9 0.00 0.00 0.00 67 1005.4
20230127201741 -5 133 3.2 19.3 0.00 0.00 0.00 66 1005.3
20230127201239 -5 223 8.0 12.9 0.00 0.00 0.00 66 1005.2
20230127200738 -5 133 8.0 16.1 0.00 0.00 0.00 67 1005.1
20230127200238 -5 15 4.8 9.7 0.00 0.00 0.00 68 1004.9
20230127195737 -5 63 4.8 12.9 0.00 0.00 0.00 69 1004.9
20230127195235 -5 53 8.0 16.1 0.00 0.00 0.00 69 1004.9
20230127194735 -5 109 4.8 9.7 0.00 0.00 0.00 69 1004.9
20230127194232 -5 51 6.4 14.5 0.00 0.00 0.00 69 1004.9
20230127193732 -5 142 14.5 17.7 0.00 0.00 0.00 69 1004.8
20230127193230 -4 340 11.3 17.7 0.00 0.00 0.00 68 1004.7
20230127192729 -4 63 4.8 11.3 0.00 0.00 0.00 69 1004.7
20230127192229 -4 165 3.2 12.9 0.00 0.00 0.00 68 1004.4
20230127191727 -4 45 3.2 9.7 0.00 0.00 0.00 70 1004.2
20230127191226 -4 130 4.8 9.7 0.00 0.00 0.00 70 1004.3
20230127190726 -5 71 3.2 12.9 0.00 0.00 0.00 70 1004.3
20230127190223 -4 250 3.2 11.3 0.00 0.00 0.00 69 1004.4
20230127185724 -4 234 1.6 4.8 0.00 0.00 0.00 69 1004.3
20230127185223 -5 9 4.8 14.5 0.00 0.00 0.00 69 1004.0
20230127184722 -4 75 9.7 9.7 0.00 0.00 0.00 68 1004.2
20230127184222 -3 114 4.8 14.5 0.00 0.00 0.00 69 1003.8
20230127183720 -4 50 4.8 12.9 0.00 0.00 0.00 70 1004.0
20230127183219 -4 25 8.0 12.9 0.00 0.00 0.00 70 1003.7
20230127182717 -4 93 4.8 16.1 0.00 0.00 0.00 70 1003.6
20230127182216 -5 139 3.2 14.5 0.00 0.00 0.00 70 1003.4
20230127181716 -4 41 16.1 19.3 0.00 0.00 0.00 70 1003.5
20230127181214 -4 82 4.8 12.9 0.00 0.00 0.00 70 1003.2
20230127180714 -4 6 8.0 22.5 0.00 0.00 0.00 69 1003.2
20230127180211 -3 322 8.0 14.5 0.00 0.00 0.00 70 1003.2
20230127175710 -4 14 3.2 17.7 0.00 0.00 0.00 72 1003.0
20230127175208 -3 34 4.8 11.3 0.00 0.00 0.00 70 1003.0
20230127174708 -3 90 1.6 9.7 0.00 0.00 0.00 71 1002.9
20230127174207 -4 173 3.2 20.9 0.00 0.00 0.00 71 1003.0
20230127173706 -3 126 4.8 20.9 0.00 0.00 0.00 72 1002.7
20230127173204 -3 15 4.8 12.9 0.00 0.00 0.00 73 1002.4
20230127172703 -3 165 3.2 14.5 0.00 0.00 0.00 73 1002.5
20230127172203 -3 168 3.2 8.0 0.00 0.00 0.00 76 1002.3
20230127171701 -4 117 3.2 12.9 0.00 0.00 0.00 78 1002.4
20230127171159 -4 118 8.0 19.3 0.00 0.00 0.00 79 1002.2
20230127170658 -4 249 4.8 11.3 0.00 0.00 0.00 78 1002.0
20230127170157 -3 124 4.8 14.5 0.00 0.00 0.00 78 1001.9
20230127165656 -3 90 0.0 8.0 0.00 0.00 0.00 79 1001.9
20230127165155 -3 107 4.8 11.3 0.00 0.00 0.00 80 1001.8
20230127164653 -3 145 0.0 11.3 0.00 0.00 0.00 79 1001.7
20230127164152 -3 58 9.7 17.7 0.00 0.00 0.00 79 1001.6
20230127163652 -3 315 4.8 14.5 0.00 0.00 0.00 80 1001.4
20230127163152 -3 142 9.7 16.1 0.00 0.00 0.00 81 1001.3
20230127162650 -3 95 6.4 11.3 0.00 0.00 0.00 82 1001.3
20230127162149 -3 15 8.0 16.1 0.00 0.00 0.00 82 1001.2
20230127161647 -3 103 4.8 12.9 0.00 0.00 0.00 81 1000.7
20230127161145 -3 64 4.8 11.3 0.00 0.00 0.00 82 1000.9
20230127160643 -3 23 8.0 14.5 0.00 0.00 0.00 81 1000.8
20230127160143 -3 125 4.8 12.9 0.00 0.00 0.00 81 1000.4
20230127155641 -3 122 9.7 9.7 0.00 0.00 0.00 82 1000.3
20230127155140 -3 117 1.6 16.1 0.00 0.00 0.00 82 1000.1
20230127154638 -3 90 4.8 12.9 0.00 0.00 0.00 81 1000.2
20230127154137 -3 282 11.3 24.1 0.00 0.00 0.00 81 1000.0
20230127153635 -3 159 3.2 11.3 0.00 0.00 0.00 82 1000.0
20230127153133 -2 123 0.0 46.7 0.00 0.00 0.00 82 999.9
20230127152633 -2 75 3.2 11.3 0.00 0.00 0.00 82 999.5
20230127152132 -2 172 3.2 12.9 0.00 0.00 0.00 82 999.3
20230127151632 -2 32 4.8 16.1 0.00 0.00 0.00 82 999.3
20230127151131 -2 92 8.0 12.9 0.00 0.00 0.00 82 998.9
20230127150631 -2 61 3.2 16.1 0.00 0.00 0.00 82 998.7
20230127150129 -2 97 4.8 8.0 0.00 0.00 0.00 82 998.6
20230127145628 -2 87 4.8 14.5 0.00 0.00 0.00 82 998.4
20230127145127 -2 18 8.0 11.3 0.00 0.00 0.00 83 998.2
20230127144625 -2 90 3.2 9.7 0.00 0.00 0.00 84 998.1
20230127144126 -2 59 3.2 17.7 0.00 0.00 0.00 84 997.9
20230127143625 -2 157 3.2 8.0 0.00 0.00 0.00 84 997.9
20230127143123 -1 133 0.0 14.5 0.00 0.00 0.00 84 997.8
20230127142621 -1 143 6.4 14.5 0.00 0.00 0.00 84 997.6
20230127142119 -1 60 6.4 9.7 0.00 0.00 0.00 84 997.3
20230127141619 0 292 8.0 14.5 0.00 0.00 0.00 85 997.2
20230127141118 0 103 4.8 11.3 0.00 0.00 0.00 85 996.6
20230127140617 0 94 11.3 14.5 0.00 0.00 0.00 87 996.4
20230127140115 0 85 9.7 12.9 0.00 0.00 0.00 88 996.3
20230127135615 0 120 4.8 11.3 0.00 0.00 0.00 90 995.9
20230127135114 0 134 12.9 16.1 0.00 0.00 0.00 91 995.6
20230127134613 0 63 1.6 8.0 0.00 0.00 0.00 96 995.8
20230127134112 0 123 1.6 9.7 0.00 0.00 0.00 97 995.5
20230127133612 0 349 6.4 6.4 0.00 0.00 0.00 97 995.4
20230127133111 0 334 0.0 4.8 0.00 0.00 0.00 97 995.5
20230127132610 0 141 3.2 4.8 0.00 0.00 0.00 97 995.4
20230127132109 0 152 4.8 8.0 0.00 0.00 0.00 97 995.0
20230127131609 0 96 3.2 4.8 0.00 0.00 0.00 97 995.0
20230127131109 0 31 3.2 4.8 0.00 0.00 0.00 97 995.0
20230127130609 0 61 3.2 8.0 0.00 0.00 0.00 97 995.0
20230127130107 0 109 1.6 8.0 0.00 0.00 0.00 97 994.9
20230127125607 0 37 3.2 6.4 0.00 0.00 0.00 97 994.6
20230127125105 0 49 1.6 8.0 0.00 0.00 0.00 97 994.6
20230127124604 0 57 3.2 4.8 0.00 0.00 0.00 97 994.6
20230127124102 0 98 0.0 4.8 0.00 0.00 0.00 97 994.5
20230127123601 0 101 0.0 8.0 0.00 0.00 0.00 97 994.6
20230127123100 0 103 0.0 4.8 0.00 0.00 0.00 97 994.6
20230127122558 0 90 0.0 4.8 0.00 0.00 0.00 97 994.7
20230127122056 0 112 3.2 6.4 0.00 0.00 0.00 97 994.4
20230127121555 -1 90 0.0 4.8 0.00 0.00 0.00 97 994.4
20230127121053 -1 22 3.2 8.0 0.00 0.00 0.00 97 994.5
20230127120552 -1 23 1.6 4.8 0.00 0.00 0.00 97 994.5
20230127120052 -1 129 3.2 8.0 0.00 0.00 0.00 97 994.5
20230127115552 -1 41 0.0 6.4 0.00 0.00 0.00 97 994.2
20230127115051 -1 132 3.2 8.0 0.00 0.00 0.00 97 994.5
20230127114551 -1 58 3.2 4.8 0.00 0.00 0.00 97 994.4
20230127114051 -1 85 3.2 6.4 0.00 0.00 0.00 97 994.5
20230127113550 -1 61 3.2 9.7 0.00 0.00 0.00 97 994.3
20230127113049 -1 137 6.4 6.4 0.00 0.00 0.00 97 994.3
20230127112549 -1 180 1.6 8.0 0.00 0.00 0.00 96 994.3
20230127112047 -2 143 4.8 4.8 0.00 0.00 0.00 96 994.4
20230127111547 -2 90 0.0 4.8 0.00 0.00 0.00 96 994.2
20230127111045 -2 73 6.4 8.0 0.00 0.00 0.00 96 994.5
20230127110544 -2 29 0.0 8.0 0.00 0.00 0.00 96 994.6
20230127110044 -2 38 3.2 4.8 0.00 0.00 0.00 96 994.6
20230127105543 -2 114 4.8 8.0 0.00 0.00 0.00 95 994.8
20230127105042 -2 90 0.0 9.7 0.00 0.00 0.00 95 994.7
20230127104541 -2 132 3.2 6.4 0.00 0.00 0.00 95 995.0
20230127104041 -2 148 4.8 9.7 0.00 0.00 0.00 95 994.9
20230127103539 -2 14 1.6 9.7 0.00 0.00 0.00 95 995.1
20230127103039 -2 150 4.8 11.3 0.00 0.00 0.00 94 994.9
20230127102537 -2 157 4.8 16.1 0.00 0.00 0.00 94 995.1
20230127102036 -2 140 4.8 6.4 0.00 0.00 0.00 94 995.2
20230127101535 -2 20 1.6 6.4 0.00 0.00 0.00 94 995.0
20230127101035 -2 183 3.2 12.9 0.00 0.00 0.00 93 995.2
20230127100535 -2 130 4.8 4.8 0.00 0.00 0.00 93 995.3
20230127100035 -3 320 1.6 19.3 0.00 0.00 0.00 93 995.8
20230127095534 -3 142 6.4 9.7 0.00 0.00 0.00 94 995.6
20230127095033 -3 95 3.2 8.0 0.00 0.00 0.00 94 995.8
20230127094532 -3 188 3.2 9.7 0.00 0.00 0.00 94 995.6
20230127094030 -3 105 3.2 11.3 0.00 0.00 0.00 93 995.6
20230127093530 -3 107 0.0 8.0 0.00 0.00 0.00 93 995.9
20230127093029 -3 110 3.2 12.9 0.00 0.00 0.00 93 996.2
20230127092528 -3 41 6.4 8.0 0.00 0.00 0.00 94 996.0
20230127092027 -3 74 3.2 6.4 0.00 0.00 0.00 94 996.4
20230127091526 -3 96 1.6 14.5 0.00 0.00 0.00 94 996.3
20230127091025 -4 176 3.2 14.5 0.00 0.00 0.00 94 996.6
20230127090525 -4 140 6.4 8.0 0.00 0.00 0.00 94 996.6
20230127090024 -4 127 3.2 11.3 0.00 0.00 0.00 94 996.6
20230127085524 -4 142 0.0 9.7 0.00 0.00 0.00 94 996.9
20230127085023 -4 133 3.2 14.5 0.00 0.00 0.00 94 997.0
20230127084523 -4 74 3.2 11.3 0.00 0.00 0.00 94 997.2
20230127084021 -4 122 3.2 8.0 0.00 0.00 0.00 94 997.1
20230127083521 -4 23 0.0 16.1 0.00 0.00 0.00 94 997.2
20230127083020 -4 110 0.0 6.4 0.00 0.00 0.00 93 997.3
20230127082519 -5 50 3.2 9.7 0.00 0.00 0.00 93 997.6
20230127082017 -5 124 0.0 6.4 0.00 0.00 0.00 93 997.8
20230127081516 -5 113 0.0 20.9 0.00 0.00 0.00 92 998.0
20230127081016 -5 180 3.2 8.0 0.00 0.00 0.00 93 998.0
20230127080514 -5 141 8.0 9.7 0.00 0.00 0.00 93 998.2
20230127080012 -5 127 3.2 12.9 0.00 0.00 0.00 93 998.1
20230127075512 -5 158 6.4 11.3 0.00 0.00 0.00 93 998.2
20230127075010 -5 143 8.0 11.3 0.00 0.00 0.00 93 998.4
20230127074509 -5 142 6.4 11.3 0.00 0.00 0.00 93 998.3
20230127074007 -5 154 3.2 12.9 0.00 0.00 0.00 94 998.5
20230127073506 -5 12 3.2 11.3 0.00 0.00 0.00 94 998.8
20230127073006 -6 116 4.8 8.0 0.00 0.00 0.00 94 998.6
20230127072506 -6 133 0.0 6.4 0.00 0.00 0.00 94 999.0
20230127072005 -6 150 6.4 8.0 0.00 0.00 0.00 94 999.2
20230127071505 -7 100 3.2 4.8 0.00 0.00 0.00 93 999.1
20230127071005 -7 90 0.0 8.0 0.00 0.00 0.00 93 999.1
20230127070504 -7 111 4.8 4.8 0.00 0.00 0.00 93 999.4
20230127070003 -7 151 4.8 6.4 0.00 0.00 0.00 92 999.6
20230127065502 -8 74 0.0 8.0 0.00 0.00 0.00 92 1000.1
20230127065001 -8 141 6.4 11.3 0.00 0.00 0.00 92 1000.1
20230127064500 -8 109 0.0 8.0 0.00 0.00 0.00 91 1000.3
20230127063959 -8 105 4.8 8.0 0.00 0.00 0.00 91 1000.6
20230127063458 -8 120 3.2 8.0 0.00 0.00 0.00 91 1000.8
20230127062957 -8 132 6.4 9.7 0.00 0.00 0.00 90 1000.9
20230127062456 -8 109 1.6 11.3 0.00 0.00 0.00 90 1001.0
20230127061956 -8 81 3.2 11.3 0.00 0.00 0.00 90 1001.0
20230127061455 -8 147 4.8 8.0 0.00 0.00 0.00 89 1001.3
20230127060954 -8 69 1.6 6.4 0.00 0.00 0.00 89 1001.3
20230127060454 -8 95 3.2 11.3 0.00 0.00 0.00 88 1001.7
20230127055951 -8 158 4.8 14.5 0.00 0.00 0.00 88 1001.7
20230127055450 -8 191 3.2 11.3 0.00 0.00 0.00 88 1002.1
20230127054949 -8 139 3.2 12.9 0.00 0.00 0.00 87 1002.0
20230127054448 -9 66 6.4 6.4 0.00 0.00 0.00 87 1002.4
20230127053947 -9 142 3.2 8.0 0.00 0.00 0.00 86 1002.4
20230127053446 -9 105 4.8 9.7 0.00 0.00 0.00 86 1002.4
20230127052945 -9 140 4.8 14.5 0.00 0.00 0.00 86 1002.6
20230127052444 -9 124 0.0 8.0 0.00 0.00 0.00 87 1003.0
20230127051943 -9 144 8.0 11.3 0.00 0.00 0.00 86 1002.9
20230127051443 -9 138 9.7 9.7 0.00 0.00 0.00 86 1003.3
20230127050943 -9 0 0.0 12.9 0.00 0.00 0.00 86 1003.5
20230127050443 -10 50 0.0 11.3 0.00 0.00 0.00 86 1003.7
20230127045942 -10 53 1.6 9.7 0.00 0.00 0.00 85 1004.0
20230127045441 -10 245 4.8 8.0 0.00 0.00 0.00 85 1004.1
20230127044940 -10 103 3.2 11.3 0.00 0.00 0.00 85 1004.3
20230127044439 -10 157 1.6 6.4 0.00 0.00 0.00 85 1004.4
20230127043938 -10 125 3.2 11.3 0.00 0.00 0.00 85 1004.8
20230127043437 -10 171 3.2 9.7 0.00 0.00 0.00 84 1004.9
20230127042936 -10 154 3.2 12.9 0.00 0.00 0.00 84 1005.2
20230127042434 -10 114 4.8 4.8 0.00 0.00 0.00 84 1005.4
20230127041933 -10 139 8.0 12.9 0.00 0.00 0.00 84 1005.3
20230127041432 -10 129 8.0 9.7 0.00 0.00 0.00 84 1005.6
20230127040930 -10 108 3.2 8.0 0.00 0.00 0.00 83 1005.4
20230127040428 -10 131 0.0 8.0 0.00 0.00 0.00 83 1005.8
20230127035928 -10 151 1.6 4.8 0.00 0.00 0.00 83 1005.8
20230127035427 -10 70 4.8 9.7 0.00 0.00 0.00 83 1006.1
20230127034925 -10 180 1.6 4.8 0.00 0.00 0.00 83 1006.2
20230127034425 -10 133 4.8 8.0 0.00 0.00 0.00 82 1006.4
20230127033924 -10 82 0.0 6.4 0.00 0.00 0.00 82 1006.6
20230127033424 -10 145 1.6 9.7 0.00 0.00 0.00 82 1006.8
20230127032923 -10 110 4.8 12.9 0.00 0.00 0.00 81 1006.8
20230127032423 -10 334 1.6 11.3 0.00 0.00 0.00 81 1006.9
20230127031923 -10 3 3.2 11.3 0.00 0.00 0.00 81 1007.4
20230127031420 -10 130 0.0 8.0 0.00 0.00 0.00 81 1007.6
20230127030919 -10 128 0.0 6.4 0.00 0.00 0.00 81 1007.6
20230127030417 -10 190 6.4 6.4 0.00 0.00 0.00 80 1007.9
20230127025917 -10 148 0.0 6.4 0.00 0.00 0.00 81 1007.9
20230127025417 -10 97 1.6 6.4 0.00 0.00 0.00 81 1008.2
20230127024916 -10 75 1.6 11.3 0.00 0.00 0.00 81 1008.2
20230127024416 -10 154 4.8 8.0 0.00 0.00 0.00 81 1008.2
20230127023915 -10 90 0.0 8.0 0.00 0.00 0.00 81 1008.1
20230127023413 -10 232 0.0 6.4 0.00 0.00 0.00 81 1008.1
20230127022911 -10 174 4.8 6.4 0.00 0.00 0.00 81 1008.5
20230127022409 -10 110 3.2 6.4 0.00 0.00 0.00 81 1008.7
20230127021909 -10 143 4.8 8.0 0.00 0.00 0.00 80 1008.6
20230127021408 -10 147 0.0 8.0 0.00 0.00 0.00 80 1009.0
20230127020906 -10 150 4.8 6.4 0.00 0.00 0.00 80 1009.0
20230127020406 -10 135 4.8 8.0 0.00 0.00 0.00 79 1009.3
20230127015904 -10 140 4.8 11.3 0.00 0.00 0.00 79 1009.4
20230127015402 -10 96 1.6 11.3 0.00 0.00 0.00 78 1009.7
20230127014902 -10 150 0.0 9.7 0.00 0.00 0.00 79 1009.7
20230127014400 -10 126 1.6 12.9 0.00 0.00 0.00 79 1010.0
20230127013858 -10 111 1.6 14.5 0.00 0.00 0.00 79 1010.1
20230127013357 -10 52 0.0 9.7 0.00 0.00 0.00 79 1010.4
20230127012855 -10 134 6.4 8.0 0.00 0.00 0.00 79 1010.4